Location: Red Deer
(52.2681°N, 113.8112°W)
Time: 00:43:55
(UTC-06:00)

QB50P2 - Pass Details

Date: 28 May 2022
Orbit: 589 x 607 km, 97.9° (Epoch: 27 June)

Event Time Altitude Azimuth Distance (km) Brightness Sun altitude
Rises 04:08:02 0° 6° (N) 2,838 ? -8.8°
Reaches altitude 10° 04:10:25 10° 355° (N) 1,930 ? -8.6°
Maximum altitude 04:13:59 28° 297° (WNW) 1,128 ? -8.3°
Drops below altitude 10° 04:17:31 10° 238° (WSW) 1,917 ? -8.0°
Enters shadow 04:17:45 - 237° (WSW) 2,001 ? -7.9°
